Location: Sydney
(46.1500°N, 60.1670°W)
Time: 21:23:16
(UTC-04:00)

Iridium 90 - Visible Passes

Search period start: 08 February 2016 00:00
Search period end: 18 February 2016 00:00
Orbit: 747 x 750 km, 86.4° (Epoch: 08 February)

Date Brightness Start Highest point End Pass type
(mag) Time Alt. Az. Time Alt. Az. Time Alt. Az.
08 Feb 7.7 04:17:59 14° N 04:17:59 14° N 04:18:44 10° N visible
09 Feb 8.2 03:36:14 11° NNE 03:36:14 11° NNE 03:36:29 10° NNE visible
10 Feb 7.8 04:34:19 12° N 04:34:19 12° N 04:34:37 10° N visible
11 Feb 8.1 03:52:30 11° N 03:52:30 11° N 03:52:39 10° N visible
